Location: Dal�� Lhota
(48.7500°N, 14.0167°E)
Time: 23:19:20
(UTC+00:00)

ATLAS 3B R/B - Pass Details

Date: 24 September 2020
Orbit: 1016 x 1179 km, 63.8° (Epoch: 04 October)

Event Time Altitude Azimuth Distance (km) Brightness Sun altitude
Rises 20:20:13 0° 316° (NW) 3,844 6.8 -31.7°
Reaches altitude 10° 20:22:58 10° 309° (NW) 2,908 5.8 -32.0°
Maximum altitude 20:29:20 42° 242° (WSW) 1,531 3.5 -32.8°
Enters shadow 20:29:49 41° 232° (SW) 1,546 3.5 -32.8°
